GW1804 Weather Reports


time (UTC)temp
C
wind
direction
speed
KPH
gust
KPH
rain 1hr
cm
rain 24hr
cm
rain mn
cm
humidity
%
barometer
mb
20260509202035 20 308 6.4 14.5 0.00 0.00 0.00 76 1013.2
20260509201557 20 251 6.4 14.5 0.00 0.00 0.00 75 1013.2
20260509201035 20 261 8.0 16.1 0.00 0.00 0.00 75 1013.2
20260509200534 20 259 6.4 16.1 0.00 0.00 0.00 76 1013.3
20260509195536 20 259 6.4 14.5 0.00 0.00 0.00 75 1013.3
20260509195034 20 321 4.8 16.1 0.00 0.00 0.00 76 1013.2
20260509194555 20 286 6.4 16.1 0.00 0.00 0.00 76 1013.2
20260509194031 20 219 6.4 16.1 0.00 0.00 0.00 77 1013.3
20260509193532 20 274 4.8 16.1 0.00 0.00 0.00 78 1013.3
20260509193057 20 211 6.4 16.1 0.00 0.00 0.00 78 1013.3
20260509192531 20 261 4.8 11.3 0.00 0.00 0.00 77 1013.3
20260509192034 20 271 6.4 11.3 0.00 0.00 0.00 78 1013.3
20260509191546 20 238 6.4 11.3 0.00 0.00 0.00 78 1013.3
20260509191037 20 246 4.8 12.9 0.00 0.00 0.00 79 1013.3
20260509190534 20 252 4.8 16.1 0.00 0.00 0.00 79 1013.3
20260509190051 19 257 6.4 16.1 0.00 0.00 0.00 79 1013.3
20260509185534 19 229 4.8 12.9 0.00 0.00 0.00 79 1013.4
20260509185035 19 286 4.8 12.9 0.00 0.00 0.00 79 1013.4
20260509184543 19 211 6.4 14.5 0.00 0.00 0.00 80 1013.4
20260509184036 19 275 6.4 14.5 0.00 0.00 0.00 79 1013.4
20260509183532 19 251 8.0 14.5 0.00 0.00 0.00 80 1013.3
20260509183051 19 261 6.4 12.9 0.00 0.00 0.00 79 1013.4
20260509182531 19 275 4.8 12.9 0.00 0.00 0.00 80 1013.4
20260509182031 19 210 4.8 12.9 0.00 0.00 0.00 81 1013.4
20260509181555 19 272 3.2 8.0 0.00 0.00 0.00 80 1013.5
20260509181033 19 225 3.2 11.3 0.00 0.00 0.00 81 1013.5
20260509180535 19 213 3.2 11.3 0.00 0.00 0.00 81 1013.5
20260509180055 18 286 3.2 11.3 0.00 0.00 0.00 81 1013.5
20260509175531 18 273 4.8 9.7 0.00 0.00 0.00 81 1013.5
20260509175034 18 296 4.8 9.7 0.00 0.00 0.00 82 1013.5
20260509174544 18 261 3.2 8.0 0.00 0.00 0.00 82 1013.6
20260509174031 18 291 3.2 8.0 0.00 0.00 0.00 82 1013.6
20260509173532 18 215 3.2 11.3 0.00 0.00 0.00 82 1013.6
20260509173048 18 267 4.8 11.3 0.00 0.00 0.00 83 1013.6
20260509172532 18 304 3.2 9.7 0.00 0.00 0.00 84 1013.6
20260509172035 18 283 3.2 9.7 0.00 0.00 0.00 84 1013.6
20260509171548 18 279 1.6 9.7 0.00 0.00 0.00 84 1013.7
20260509171031 18 243 3.2 9.7 0.00 0.00 0.00 85 1013.6
20260509170534 17 211 3.2 9.7 0.00 0.00 0.00 86 1013.5
20260509170047 17 217 3.2 9.7 0.00 0.00 0.00 86 1013.5
20260509165532 17 247 1.6 9.7 0.00 0.00 0.00 87 1013.5
20260509165031 17 272 3.2 9.7 0.00 0.00 0.00 88 1013.6
20260509164554 17 268 3.2 8.0 0.00 0.00 0.00 87 1013.5
20260509164030 17 266 1.6 6.4 0.00 0.00 0.00 88 1013.6
20260509163534 17 204 0.0 6.4 0.00 0.00 0.00 88 1013.6
20260509163045 17 296 1.6 6.4 0.00 0.00 0.00 88 1013.6
20260509162532 16 251 1.6 6.4 0.00 0.00 0.00 89 1013.6
20260509162030 16 246 1.6 6.4 0.00 0.00 0.00 89 1013.7
20260509161555 16 0 1.6 6.4 0.00 0.00 0.00 89 1013.6
20260509161034 16 278 1.6 6.4 0.00 0.00 0.00 89 1013.7
20260509160535 16 276 1.6 4.8 0.00 0.00 0.00 89 1013.7
20260509160044 16 260 1.6 4.8 0.00 0.00 0.00 89 1013.7
20260509155534 16 247 1.6 6.4 0.00 0.00 0.00 89 1013.8
20260509155034 16 228 1.6 6.4 0.00 0.00 0.00 90 1013.8
20260509154548 16 241 1.6 4.8 0.00 0.00 0.00 90 1013.7
20260509154032 16 244 1.6 6.4 0.00 0.00 0.00 90 1013.7
20260509153537 16 250 0.0 6.4 0.00 0.00 0.00 90 1013.6
20260509153055 16 217 3.2 6.4 0.00 0.00 0.00 90 1013.6
20260509152537 16 223 1.6 6.4 0.00 0.00 0.00 90 1013.6
20260509152031 16 244 0.0 4.8 0.00 0.00 0.00 91 1013.7
20260509151547 16 223 0.0 4.8 0.00 0.00 0.00 91 1013.7
20260509151031 16 0 0.0 3.2 0.00 0.00 0.00 91 1013.7
20260509150531 16 0 0.0 3.2 0.00 0.00 0.00 91 1013.7
20260509150053 16 0 0.0 3.2 0.00 0.00 0.00 91 1013.7
20260509145534 16 0 0.0 3.2 0.00 0.00 0.00 91 1013.7
20260509145034 16 249 0.0 3.2 0.00 0.00 0.00 91 1013.7
20260509144545 16 0 0.0 6.4 0.00 0.00 0.00 91 1013.7
20260509144034 15 249 1.6 6.4 0.00 0.00 0.00 91 1013.6
20260509143534 16 226 1.6 6.4 0.00 0.00 0.00 91 1013.5
20260509143044 15 0 1.6 4.8 0.00 0.00 0.00 91 1013.5
20260509142535 15 0 0.0 1.6 0.00 0.00 0.00 91 1013.6
20260509142033 15 0 0.0 3.2 0.00 0.00 0.00 91 1013.6
20260509141547 15 0 0.0 4.8 0.00 0.00 0.00 91 1013.6
20260509141036 15 224 0.0 4.8 0.00 0.00 0.00 91 1013.5
20260509140531 15 218 1.6 6.4 0.00 0.00 0.00 91 1013.5
20260509140058 15 233 1.6 6.4 0.00 0.00 0.00 91 1013.5
20260509135531 15 223 0.0 4.8 0.00 0.00 0.00 91 1013.5
20260509135036 15 0 0.0 4.8 0.00 0.00 0.00 91 1013.4
20260509134623 15 0 1.6 4.8 0.00 0.00 0.00 91 1013.4
20260509134030 15 223 1.6 4.8 0.00 0.00 0.00 91 1013.5
20260509133535 15 223 0.0 3.2 0.00 0.00 0.00 91 1013.5
20260509133043 15 223 0.0 3.2 0.00 0.00 0.00 90 1013.4
20260509132534 16 0 0.0 3.2 0.00 0.00 0.00 90 1013.4
20260509132031 16 223 1.6 3.2 0.00 0.00 0.00 90 1013.3
20260509131554 16 0 0.0 4.8 0.00 0.00 0.00 90 1013.3
20260509131035 15 216 1.6 6.4 0.00 0.00 0.00 90 1013.4
20260509130535 16 209 1.6 6.4 0.00 0.00 0.00 90 1013.3
20260509130051 16 221 1.6 4.8 0.00 0.00 0.00 90 1013.2
20260509125535 16 0 1.6 6.4 0.00 0.00 0.00 90 1013.3
20260509125036 16 0 0.0 6.4 0.00 0.00 0.00 90 1013.2
20260509124546 16 239 1.6 6.4 0.00 0.00 0.00 90 1013.2
20260509124031 16 229 3.2 4.8 0.00 0.00 0.00 90 1013.2
20260509123534 16 244 1.6 3.2 0.00 0.00 0.00 90 1013.1
20260509123047 16 244 0.0 3.2 0.00 0.00 0.00 90 1013.1
20260509122530 16 0 0.0 1.6 0.00 0.00 0.00 90 1013.1
20260509122031 16 0 0.0 1.6 0.00 0.00 0.00 90 1013.0
20260509121549 16 0 0.0 1.6 0.00 0.00 0.00 90 1013.0
20260509121031 16 0 0.0 1.6 0.00 0.00 0.00 90 1013.0
20260509120531 16 0 0.0 0.0 0.00 0.00 0.00 90 1013.0
20260509120050 16 0 0.0 3.2 0.00 0.00 0.00 90 1013.1
20260509115530 16 0 0.0 3.2 0.00 0.00 0.00 90 1013.1
20260509115034 16 0 0.0 0.0 0.00 0.00 0.00 90 1013.1
20260509114545 16 0 0.0 1.6 0.00 0.00 0.00 90 1013.2
20260509114034 16 0 0.0 3.2 0.00 0.00 0.00 90 1013.2
20260509113535 16 0 0.0 6.4 0.00 0.00 0.00 90 1013.2
20260509113053 16 0 0.0 6.4 0.00 0.00 0.00 90 1013.1
20260509112531 16 223 1.6 6.4 0.00 0.00 0.00 90 1013.1
20260509112034 16 0 0.0 3.2 0.00 0.00 0.00 90 1013.1
20260509111546 16 0 0.0 3.2 0.00 0.00 0.00 90 1013.1
20260509111032 16 0 0.0 3.2 0.00 0.00 0.00 90 1013.1
20260509110536 16 0 0.0 3.2 0.00 0.00 0.00 90 1013.0
20260509110047 16 0 0.0 3.2 0.00 0.00 0.00 90 1013.1
20260509105535 16 0 0.0 3.2 0.00 0.00 0.00 90 1013.2
20260509105034 16 0 0.0 3.2 0.00 0.00 0.00 90 1013.2
20260509104544 16 217 0.0 4.8 0.00 0.00 0.00 90 1013.2
20260509104030 16 0 0.0 4.8 0.00 0.00 0.00 90 1013.2
20260509103530 16 205 1.6 4.8 0.00 0.00 0.00 90 1013.2
20260509103052 16 217 1.6 4.8 0.00 0.00 0.00 90 1013.3
20260509102534 16 221 1.6 6.4 0.00 0.00 0.00 90 1013.3
20260509102035 16 213 3.2 6.4 0.00 0.00 0.00 90 1013.4
20260509101553 16 0 1.6 4.8 0.00 0.00 0.00 90 1013.4
20260509101033 16 236 0.0 4.8 0.00 0.00 0.00 90 1013.3
20260509100534 16 0 0.0 4.8 0.00 0.00 0.00 90 1013.3
20260509100048 16 0 0.0 4.8 0.00 0.00 0.00 90 1013.3
20260509095534 16 236 0.0 4.8 0.00 0.00 0.00 90 1013.4
20260509095031 16 210 0.0 4.8 0.00 0.00 0.00 90 1013.4
20260509094551 16 0 0.0 4.8 0.00 0.00 0.00 90 1013.4
20260509094032 16 223 0.0 3.2 0.00 0.00 0.00 90 1013.5
20260509093532 16 204 0.0 4.8 0.00 0.00 0.00 89 1013.4
20260509093058 16 204 0.0 4.8 0.00 0.00 0.00 89 1013.5
20260509092530 16 220 1.6 4.8 0.00 0.00 0.00 89 1013.5
20260509092033 16 226 0.0 4.8 0.00 0.00 0.00 89 1013.5
20260509091550 16 214 0.0 4.8 0.00 0.00 0.00 89 1013.6
20260509091031 16 214 1.6 4.8 0.00 0.00 0.00 89 1013.6
20260509090532 16 214 1.6 6.4 0.00 0.00 0.00 89 1013.6
20260509090047 16 223 3.2 6.4 0.00 0.00 0.00 89 1013.7
20260509085530 16 225 1.6 6.4 0.00 0.00 0.00 89 1013.7
20260509085034 16 224 1.6 4.8 0.00 0.00 0.00 89 1013.7
20260509084550 16 213 1.6 4.8 0.00 0.00 0.00 88 1013.8
20260509084034 16 238 0.0 4.8 0.00 0.00 0.00 88 1013.8
20260509083534 16 214 0.0 3.2 0.00 0.00 0.00 88 1013.8
20260509083047 16 0 0.0 1.6 0.00 0.00 0.00 88 1013.8
20260509082534 16 0 0.0 3.2 0.00 0.00 0.00 88 1013.9
20260509082032 16 0 0.0 3.2 0.00 0.00 0.00 88 1013.9
20260509081552 16 214 0.0 1.6 0.00 0.00 0.00 89 1014.0
20260509081032 16 0 0.0 0.0 0.00 0.00 0.00 89 1014.0
20260509080531 16 0 0.0 3.2 0.00 0.00 0.00 89 1014.1
20260509080045 16 0 0.0 3.2 0.00 0.00 0.00 89 1014.1
20260509075531 16 0 0.0 3.2 0.00 0.00 0.00 89 1014.2
20260509075034 16 0 0.0 3.2 0.00 0.00 0.00 89 1014.2
20260509074557 16 0 0.0 3.2 0.00 0.00 0.00 89 1014.1
20260509074032 16 0 0.0 1.6 0.00 0.00 0.00 89 1014.2
20260509073536 16 0 0.0 1.6 0.00 0.00 0.00 89 1014.2
20260509073046 16 0 0.0 3.2 0.00 0.00 0.00 89 1014.3
20260509072532 16 0 0.0 3.2 0.00 0.00 0.00 89 1014.2
20260509072033 16 0 0.0 3.2 0.00 0.00 0.00 89 1014.3
20260509071544 16 0 0.0 3.2 0.00 0.00 0.00 89 1014.3
20260509071032 16 0 0.0 3.2 0.00 0.00 0.00 89 1014.4
20260509070533 16 221 0.0 4.8 0.00 0.00 0.00 89 1014.4
20260509070048 16 0 0.0 4.8 0.00 0.00 0.00 89 1014.5
20260509065531 16 240 0.0 3.2 0.00 0.00 0.00 89 1014.5
20260509065031 16 0 0.0 3.2 0.00 0.00 0.00 89 1014.6
20260509064558 16 0 0.0 3.2 0.00 0.00 0.00 89 1014.6
20260509064034 16 0 1.6 3.2 0.00 0.00 0.00 89 1014.6
20260509063531 16 270 0.0 3.2 0.00 0.00 0.00 89 1014.5
20260509063050 16 270 0.0 3.2 0.00 0.00 0.00 88 1014.6
20260509062534 16 0 0.0 4.8 0.00 0.00 0.00 88 1014.6
20260509062035 16 0 0.0 6.4 0.00 0.00 0.00 88 1014.6
20260509061547 16 270 0.0 6.4 0.00 0.00 0.00 88 1014.6
20260509061033 16 225 1.6 4.8 0.00 0.00 0.00 88 1014.6
20260509060532 16 306 0.0 3.2 0.00 0.00 0.00 88 1014.6
20260509060048 16 0 0.0 3.2 0.00 0.00 0.00 88 1014.6
20260509055533 16 256 0.0 0.0 0.00 0.00 0.00 88 1014.6
20260509055031 16 0 0.0 0.0 0.00 0.00 0.00 88 1014.5
20260509054554 16 0 0.0 0.0 0.00 0.00 0.00 88 1014.6
20260509054032 16 0 0.0 3.2 0.00 0.00 0.00 88 1014.6
20260509053532 16 0 0.0 3.2 0.00 0.00 0.00 88 1014.7
20260509053044 16 0 0.0 1.6 0.00 0.00 0.00 88 1014.7
20260509052531 16 0 0.0 3.2 0.00 0.00 0.00 88 1014.7
20260509052031 16 0 0.0 3.2 0.00 0.00 0.00 88 1014.7
20260509051549 16 0 0.0 3.2 0.00 0.00 0.00 88 1014.8
20260509051031 16 299 0.0 3.2 0.00 0.00 0.00 88 1014.8
20260509050534 16 0 0.0 3.2 0.00 0.00 0.00 88 1014.8
20260509050047 16 0 0.0 3.2 0.00 0.00 0.00 88 1014.8
20260509045531 16 218 0.0 3.2 0.00 0.00 0.00 88 1014.8
20260509045033 16 0 0.0 3.2 0.00 0.00 0.00 88 1014.8
20260509044546 16 218 0.0 6.4 0.00 0.00 0.00 88 1014.7
20260509044031 16 218 1.6 6.4 0.00 0.00 0.00 88 1014.7
20260509043532 16 221 3.2 6.4 0.00 0.00 0.00 88 1014.7
20260509043057 16 215 1.6 4.8 0.00 0.00 0.00 88 1014.6
20260509042535 16 217 1.6 4.8 0.00 0.00 0.00 88 1014.6
20260509042035 16 251 0.0 4.8 0.00 0.00 0.00 88 1014.6
20260509041551 16 251 1.6 4.8 0.00 0.00 0.00 88 1014.6
20260509041036 16 306 1.6 4.8 0.00 0.00 0.00 88 1014.5
20260509040537 16 273 0.0 4.8 0.00 0.00 0.00 88 1014.4
20260509040049 16 0 1.6 4.8 0.00 0.00 0.00 88 1014.5
20260509035539 16 0 0.0 4.8 0.00 0.00 0.00 88 1014.4
20260509035033 16 270 0.0 3.2 0.00 0.00 0.00 88 1014.4
20260509034550 16 329 0.0 3.2 0.00 0.00 0.00 88 1014.3
20260509034031 16 0 0.0 3.2 0.00 0.00 0.00 88 1014.3
20260509033535 16 0 0.0 3.2 0.00 0.00 0.00 88 1014.2
20260509033052 16 15 0.0 4.8 0.00 0.00 0.00 88 1014.2
20260509032536 16 0 0.0 4.8 0.00 0.00 0.00 88 1014.1
20260509032035 16 309 1.6 4.8 0.00 0.00 0.00 88 1014.1
20260509031553 16 0 0.0 6.4 0.00 0.00 0.00 88 1014.1
20260509031035 16 285 1.6 6.4 0.00 0.00 0.00 87 1014.1
20260509030536 16 275 1.6 6.4 0.00 0.00 0.00 87 1014.2
20260509030045 16 276 1.6 6.4 0.00 0.00 0.00 87 1014.1
20260509025535 16 261 3.2 6.4 0.00 0.00 0.00 87 1014.1
20260509025035 16 253 1.6 9.7 0.00 0.00 0.00 87 1014.0
20260509024546 16 275 3.2 9.7 0.00 0.00 0.00 86 1014.0
20260509024036 16 261 3.2 6.4 0.00 0.00 0.00 86 1014.0
20260509023532 16 0 1.6 6.4 0.00 0.00 0.00 86 1014.0
20260509023041 16 284 1.6 8.0 0.00 0.00 0.00 86 1013.9
20260509022532 16 252 3.2 9.7 0.00 0.00 0.00 85 1013.9
20260509022035 17 323 4.8 9.7 0.00 0.00 0.00 85 1013.9
20260509021544 17 281 3.2 8.0 0.00 0.00 0.00 85 1013.8
20260509021035 17 259 3.2 9.7 0.00 0.00 0.00 84 1013.7
20260509020535 17 309 3.2 9.7 0.00 0.00 0.00 84 1013.7
20260509020047 17 299 3.2 11.3 0.00 0.00 0.00 84 1013.6
20260509015535 17 251 3.2 11.3 0.00 0.00 0.00 84 1013.6
20260509015036 17 321 3.2 6.4 0.00 0.00 0.00 83 1013.5
20260509014546 17 313 1.6 9.7 0.00 0.00 0.00 83 1013.5
20260509014035 17 320 4.8 9.7 0.00 0.00 0.00 82 1013.5
20260509013535 18 352 3.2 8.0 0.00 0.00 0.00 82 1013.5
20260509013055 18 246 3.2 8.0 0.00 0.00 0.00 81 1013.6
20260509012531 18 225 3.2 11.3 0.00 0.00 0.00 81 1013.6
20260509012031 18 271 4.8 11.3 0.00 0.00 0.00 80 1013.5
20260509011546 18 309 3.2 6.4 0.00 0.00 0.00 80 1013.5
20260509011034 18 299 3.2 12.9 0.00 0.00 0.00 79 1013.5
20260509010532 19 300 1.6 12.9 0.00 0.00 0.00 78 1013.5
20260509010047 19 288 3.2 9.7 0.00 0.00 0.00 77 1013.6
20260509005534 20 293 4.8 9.7 0.00 0.00 0.00 77 1013.5
20260509005031 20 274 1.6 9.7 0.00 0.00 0.00 77 1013.5
20260509004558 20 313 4.8 9.7 0.00 0.00 0.00 77 1013.6
20260509004032 20 221 4.8 9.7 0.00 0.00 0.00 77 1013.5
20260509003532 20 250 3.2 9.7 0.00 0.00 0.00 77 1013.5
20260509003047 20 248 1.6 9.7 0.00 0.00 0.00 77 1013.4
20260509002531 20 305 4.8 9.7 0.00 0.00 0.00 77 1013.4
20260509002032 20 273 3.2 12.9 0.00 0.00 0.00 78 1013.4
20260509001552 20 317 4.8 12.9 0.00 0.00 0.00 77 1013.5
20260509001031 20 252 4.8 12.9 0.00 0.00 0.00 76 1013.6
20260509000531 20 311 4.8 11.3 0.00 0.00 0.00 76 1013.7
20260509000049 20 309 4.8 12.9 0.00 0.00 0.00 76 1013.8
20260508235531 20 252 6.4 12.9 0.00 0.00 0.00 77 1013.8
20260508235032 20 278 6.4 12.9 0.00 0.00 0.00 77 1013.8
20260508234545 20 251 4.8 16.1 0.00 0.00 0.00 77 1013.8
20260508234033 20 315 6.4 16.1 0.00 0.00 0.00 77 1013.9
20260508233532 20 296 4.8 14.5 0.00 0.00 0.00 76 1013.8
20260508233045 20 270 4.8 16.1 0.00 0.00 0.00 77 1013.8
20260508232531 20 250 6.4 16.1 0.00 0.00 0.00 77 1013.9
20260508232032 20 304 6.4 14.5 0.00 0.00 0.00 77 1013.9
20260508231555 20 324 8.0 14.5 0.00 0.00 0.00 77 1014.0
20260508231032 20 242 6.4 14.5 0.00 0.00 0.00 77 1014.0
20260508230531 20 311 6.4 16.1 0.00 0.00 0.00 77 1014.0
20260508230051 20 302 6.4 16.1 0.00 0.00 0.00 77 1014.1
20260508225532 20 317 6.4 14.5 0.00 0.00 0.00 76 1014.1
20260508225032 20 323 6.4 16.1 0.00 0.00 0.00 77 1014.2
20260508224552 20 291 8.0 16.1 0.00 0.00 0.00 77 1014.2
20260508224034 20 286 8.0 16.1 0.00 0.00 0.00 77 1014.2
20260508223534 20 306 8.0 16.1 0.00 0.00 0.00 76 1014.2
20260508223051 20 334 8.0 17.7 0.00 0.00 0.00 76 1014.3
20260508222532 20 222 8.0 17.7 0.00 0.00 0.00 77 1014.3
20260508222032 20 317 8.0 16.1 0.00 0.00 0.00 77 1014.3
20260508221547 20 275 6.4 16.1 0.00 0.00 0.00 77 1014.4
20260508221033 20 298 8.0 20.9 0.00 0.00 0.00 77 1014.5
20260508220531 20 324 8.0 20.9 0.00 0.00 0.00 76 1014.6
20260508220046 20 304 9.7 20.9 0.00 0.00 0.00 77 1014.6
20260508215532 20 235 8.0 16.1 0.00 0.00 0.00 78 1014.6
20260508215032 20 275 9.7 16.1 0.00 0.00 0.00 77 1014.7
20260508214602 20 290 8.0 17.7 0.00 0.00 0.00 77 1014.6
20260508214038 20 269 9.7 17.7 0.00 0.00 0.00 76 1014.7
20260508213535 20 292 8.0 17.7 0.00 0.00 0.00 77 1014.7
20260508213049 20 255 8.0 16.1 0.00 0.00 0.00 77 1014.6
20260508212534 20 272 6.4 16.1 0.00 0.00 0.00 76 1014.6
20260508212035 20 250 9.7 17.7 0.00 0.00 0.00 75 1014.7
20260508211548 20 331 9.7 17.7 0.00 0.00 0.00 76 1014.6
20260508211035 20 279 9.7 16.1 0.00 0.00 0.00 76 1014.7
20260508210535 20 229 9.7 17.7 0.00 0.00 0.00 76 1014.7
20260508210049 20 298 6.4 17.7 0.00 0.00 0.00 75 1014.7
20260508205536 20 322 6.4 16.1 0.00 0.00 0.00 76 1014.7
20260508205032 20 270 8.0 14.5 0.00 0.00 0.00 75 1014.7
20260508204551 20 271 6.4 16.1 0.00 0.00 0.00 74 1014.7
20260508204034 21 257 8.0 16.1 0.00 0.00 0.00 75 1014.7
20260508203531 21 267 8.0 16.1 0.00 0.00 0.00 75 1014.7
20260508203044 21 277 6.4 16.1 0.00 0.00 0.00 76 1014.7
20260508202532 21 269 8.0 16.1 0.00 0.00 0.00 74 1014.8